GFSCGP_prec_precacc12_162.txt.gz
Total_Precipitation_Accumulation
0.00 0.00 0.00 0.00 0.00 0.01 0.03 0.00 0.00 0.13 0.02 0.01 0.00 0.00 0.00 0.03 0.07 0.05 0.01 0.00 0.01 0.00 0.00 0.02 0.02 0.01 0.00 0.00 0.00 0.00 0.00 0.00 0.01 0.00 0.02 0.01 0.01 0.02 0.07 0.02 0.03 0.04 0.06 0.17
0.00 0.00 0.00 0.00 0.00 0.00 0.01 0.00 0.01 0.06 0.00 0.03 0.04 0.01 0.00 0.00 0.02 0.04 0.01 0.01 0.00 0.00 0.00 0.01 0.03 0.02 0.00 0.00 0.00 0.00 0.00 0.00 0.00 0.00 0.01 0.01 0.01 0.01 0.02 0.02 0.00 0.02 0.05 0.10
0.00 0.00 0.00 0.00 0.00 0.00 0.00 0.00 0.00 0.01 0.05 0.08 0.08 0.02 0.01 0.00 0.00 0.01 0.01 0.02 0.02 0.04 0.01 0.01 0.00 0.01 0.01 0.00 0.00 0.00 0.00 0.00 0.00 0.02 0.01 0.05 0.05 0.11 0.04 0.02 0.06 0.02 0.05 0.11
0.00 0.00 0.00 0.00 0.00 0.00 0.00 0.00 0.01 0.00 0.06 0.08 0.08 0.03 0.00 0.00 0.00 0.00 0.00 0.02 0.05 0.01 0.05 0.03 0.00 0.00 0.00 0.00 0.00 0.00 0.00 0.00 0.00 0.02 0.03 0.02 0.03 0.04 0.01 0.00 0.00 0.01 0.05 0.11
0.00 0.00 0.00 0.00 0.00 0.00 0.00 0.00 0.00 0.00 0.01 0.05 0.10 0.11 0.01 0.00 0.00 0.00 0.00 0.01 0.03 0.02 0.05 0.01 0.01 0.00 0.00 0.00 0.00 0.00 0.00 0.00 0.00 0.01 0.05 0.04 0.04 0.03 0.02 0.00 0.01 0.00 0.02 0.04
0.00 0.00 0.00 0.00 0.00 0.00 0.00 0.00 0.00 0.03 0.08 0.03 0.00 0.04 0.02 0.01 0.00 0.00 0.00 0.00 0.00 0.03 0.06 0.05 0.02 0.01 0.01 0.00 0.00 0.00 0.00 0.01 0.00 0.00 0.01 0.05 0.06 0.02 0.03 0.04 0.02 0.01 0.01 0.03
0.00 0.00 0.00 0.00 0.00 0.00 0.00 0.00 0.00 0.02 0.01 0.00 0.02 0.09 0.11 0.07 0.07 0.05 0.00 0.00 0.00 0.00 0.04 0.04 0.02 0.02 0.04 0.03 0.00 0.00 0.00 0.00 0.00 0.00 0.00 0.00 0.02 0.06 0.07 0.02 0.05 0.02 0.01 0.03
0.00 0.00 0.00 0.00 0.00 0.00 0.00 0.00 0.00 0.00 0.00 0.00 0.01 0.09 0.11 0.13 0.17 0.11 0.06 0.01 0.01 0.00 0.00 0.01 0.02 0.04 0.03 0.04 0.02 0.00 0.00 0.00 0.00 0.00 0.00 0.00 0.00 0.06 0.04 0.05 0.06 0.03 0.01 0.03
0.00 0.00 0.00 0.00 0.00 0.00 0.00 0.00 0.00 0.00 0.00 0.00 0.00 0.06 0.07 0.08 0.17 0.09 0.03 0.02 0.01 0.01 0.00 0.01 0.03 0.05 0.04 0.07 0.05 0.02 0.01 0.00 0.00 0.00 0.00 0.00 0.01 0.03 0.05 0.04 0.04 0.07 0.05 0.04
0.00 0.00 0.00 0.00 0.00 0.00 0.00 0.00 0.00 0.00 0.00 0.00 0.02 0.05 0.12 0.20 0.34 0.12 0.05 0.03 0.02 0.06 0.04 0.00 0.05 0.11 0.06 0.09 0.11 0.03 0.01 0.01 0.00 0.00 0.00 0.00 0.00 0.01 0.05 0.06 0.01 0.01 0.02 0.02
0.00 0.00 0.00 0.00 0.00 0.00 0.00 0.00 0.00 0.00 0.00 0.00 0.03 0.26 0.18 0.06 0.09 0.11 0.17 0.10 0.01 0.00 0.04 0.04 0.00 0.04 0.11 0.14 0.22 0.26 0.14 0.13 0.04 0.02 0.00 0.01 0.00 0.00 0.03 0.03 0.03 0.06 0.01 0.02
0.00 0.00 0.00 0.00 0.00 0.00 0.00 0.00 0.00 0.00 0.00 0.02 0.01 0.03 0.02 0.01 0.11 0.15 0.12 0.28 0.15 0.02 0.04 0.07 0.03 0.08 0.11 0.31 0.19 0.28 0.63 0.52 0.27 0.23 0.09 0.08 0.07 0.06 0.04 0.02 0.02 0.03 0.03 0.03
0.00 0.00 0.00 0.00 0.00 0.00 0.00 0.00 0.00 0.00 0.00 0.05 0.14 0.08 0.00 0.01 0.18 0.15 0.16 0.17 0.15 0.08 0.01 0.08 0.09 0.17 0.19 0.22 0.78 0.42 0.62 0.84 0.62 0.54 0.34 0.26 0.23 0.10 0.05 0.03 0.01 0.03 0.07 0.04
0.00 0.00 0.00 0.00 0.00 0.00 0.00 0.00 0.00 0.00 0.00 0.00 0.00 0.00 0.00 0.01 0.09 0.12 0.18 0.22 0.22 0.18 0.10 0.13 0.28 0.38 0.24 0.26 0.53 1.53 1.31 1.24 1.08 1.06 0.86 0.56 0.37 0.22 0.13 0.13 0.08 0.06 0.15 0.12
0.00 0.00 0.00 0.00 0.00 0.00 0.00 0.00 0.00 0.02 0.01 0.00 0.00 0.00 0.00 0.02 0.04 0.04 0.02 0.11 0.21 0.19 0.22 0.38 0.44 0.74 0.48 0.27 0.31 0.86 1.69 1.48 1.66 2.00 1.88 1.06 0.69 0.62 0.53 0.47 0.32 0.27 0.40 0.23
0.00 0.00 0.00 0.00 0.00 0.00 0.00 0.00 0.00 0.01 0.00 0.00 0.00 0.00 0.03 0.04 0.07 0.07 0.18 0.24 0.09 0.20 0.22 0.18 0.28 0.45 0.61 0.43 0.27 0.27 0.37 0.61 0.54 0.73 0.65 1.08 0.97 0.79 0.79 0.76 0.59 0.50 0.56 0.57
0.00 0.00 0.00 0.00 0.01 0.00 0.00 0.01 0.07 0.01 0.00 0.01 0.00 0.01 0.18 0.16 0.09 0.15 0.18 0.16 0.16 0.10 0.32 0.33 0.33 0.28 0.47 0.53 0.34 0.30 0.28 0.34 0.32 0.21 0.09 0.10 0.28 0.29 0.49 0.43 0.46 0.46 0.50 0.46
0.00 0.00 0.00 0.00 0.02 0.01 0.00 0.00 0.10 0.02 0.00 0.00 0.00 0.01 0.16 0.59 0.08 0.08 0.10 0.03 0.11 0.27 0.57 0.58 0.28 0.19 0.16 0.23 0.24 0.30 0.30 0.29 0.25 0.23 0.15 0.05 0.08 0.18 0.24 0.25 0.32 0.43 0.48 0.41
0.00 0.00 0.00 0.00 0.02 0.01 0.00 0.00 0.01 0.06 0.04 0.00 0.00 0.03 0.18 0.13 0.09 0.04 0.04 0.03 0.04 0.06 0.20 0.35 0.31 0.17 0.20 0.29 0.42 0.54 0.71 0.76 0.74 0.49 0.39 0.23 0.15 0.16 0.23 0.27 0.23 0.29 0.40 0.37
0.00 0.00 0.00 0.00 0.02 0.09 0.02 0.02 0.02 0.01 0.03 0.00 0.00 0.09 0.28 0.36 0.23 0.06 0.12 0.07 0.06 0.02 0.08 0.18 0.26 0.29 0.23 0.15 0.26 0.29 0.35 0.48 0.56 0.62 0.56 0.54 0.48 0.37 0.31 0.83 0.57 0.35 0.23 0.16
0.00 0.00 0.01 0.02 0.01 0.02 0.01 0.01 0.01 0.03 0.03 0.00 0.00 0.07 0.17 0.48 0.89 0.75 0.75 0.44 0.24 0.21 0.19 0.19 0.18 0.15 0.10 0.15 0.23 0.13 0.11 0.07 0.14 0.11 0.11 0.17 0.29 0.41 0.30 0.30 0.21 0.17 0.17 0.11
0.00 0.00 0.01 0.03 0.03 0.09 0.05 0.08 0.02 0.02 0.01 0.01 0.02 0.17 0.29 0.33 0.89 0.93 0.62 0.36 0.28 0.25 0.23 0.16 0.05 0.02 0.02 0.04 0.09 0.07 0.06 0.04 0.04 0.03 0.04 0.03 0.05 0.07 0.07 0.17 0.25 0.19 0.14 0.09
0.00 0.00 0.01 0.07 0.10 0.17 0.04 0.04 0.00 0.00 0.00 0.01 0.28 0.55 0.22 0.17 0.19 0.25 0.16 0.28 0.13 0.08 0.10 0.04 0.00 0.00 0.05 0.06 0.06 0.11 0.09 0.04 0.01 0.03 0.03 0.03 0.04 0.03 0.04 0.06 0.07 0.09 0.09 0.04
0.00 0.00 0.00 0.00 0.01 0.01 0.01 0.00 0.00 0.00 0.00 0.00 0.01 0.03 0.01 0.08 0.15 0.20 0.17 0.12 0.03 0.01 0.01 0.00 0.00 0.00 0.01 0.06 0.03 0.06 0.04 0.01 0.00 0.01 0.00 0.00 0.00 0.00 0.00 0.00 0.01 0.00 0.00 0.00
0.00 0.00 0.00 0.00 0.00 0.00 0.00 0.00 0.00 0.00 0.00 0.00 0.00 0.02 0.01 0.03 0.04 0.05 0.04 0.00 0.00 0.00 0.00 0.00 0.00 0.01 0.00 0.01 0.01 0.01 0.00 0.00 0.00 0.00 0.00 0.00 0.00 0.00 0.00 0.00 0.00 0.00 0.00 0.00
0.00 0.00 0.00 0.00 0.00 0.00 0.00 0.00 0.00 0.00 0.00 0.00 0.00 0.01 0.01 0.00 0.01 0.00 0.00 0.00 0.00 0.00 0.00 0.00 0.00 0.00 0.00 0.00 0.00 0.00 0.00 0.00 0.00 0.00 0.00 0.00 0.00 0.00 0.00 0.00 0.00 0.00 0.00 0.00

GFSCGP_prec_precacc12_165.txt.gz
Total_Precipitation_Accumulation
0.00 0.00 0.00 0.00 0.00 0.00 0.01 0.00 0.00 0.00 0.00 0.01 0.00 0.00 0.00 0.03 0.04 0.03 0.01 0.00 0.00 0.00 0.00 0.02 0.02 0.01 0.00 0.00 0.00 0.00 0.00 0.00 0.01 0.00 0.00 0.00 0.01 0.00 0.06 0.02 0.02 0.04 0.01 0.01
0.00 0.00 0.00 0.00 0.00 0.00 0.01 0.00 0.00 0.00 0.00 0.03 0.04 0.01 0.00 0.00 0.01 0.02 0.00 0.01 0.00 0.00 0.00 0.01 0.03 0.02 0.00 0.00 0.00 0.00 0.00 0.00 0.00 0.00 0.00 0.00 0.01 0.00 0.01 0.01 0.00 0.02 0.01 0.02
0.00 0.00 0.00 0.00 0.00 0.00 0.00 0.00 0.00 0.00 0.05 0.11 0.07 0.02 0.01 0.00 0.00 0.01 0.01 0.02 0.01 0.00 0.00 0.00 0.00 0.01 0.01 0.00 0.00 0.00 0.00 0.00 0.00 0.00 0.00 0.01 0.02 0.04 0.03 0.02 0.05 0.01 0.03 0.07
0.00 0.00 0.00 0.00 0.00 0.00 0.00 0.00 0.00 0.00 0.04 0.05 0.07 0.02 0.00 0.00 0.00 0.00 0.00 0.02 0.05 0.00 0.00 0.00 0.00 0.00 0.00 0.00 0.00 0.00 0.00 0.00 0.00 0.00 0.03 0.01 0.04 0.02 0.02 0.00 0.00 0.01 0.04 0.08
0.00 0.00 0.00 0.00 0.00 0.00 0.00 0.00 0.00 0.00 0.01 0.04 0.08 0.06 0.00 0.00 0.00 0.00 0.00 0.01 0.03 0.01 0.03 0.01 0.00 0.00 0.00 0.00 0.00 0.00 0.00 0.00 0.00 0.00 0.05 0.05 0.04 0.02 0.01 0.00 0.04 0.01 0.02 0.03
0.00 0.00 0.00 0.00 0.00 0.00 0.00 0.00 0.00 0.03 0.08 0.03 0.00 0.02 0.01 0.01 0.00 0.00 0.00 0.00 0.00 0.03 0.05 0.04 0.01 0.00 0.00 0.00 0.00 0.00 0.00 0.01 0.00 0.00 0.01 0.05 0.07 0.04 0.03 0.01 0.02 0.02 0.01 0.03
0.00 0.00 0.00 0.00 0.00 0.00 0.00 0.00 0.00 0.02 0.01 0.00 0.00 0.02 0.03 0.03 0.06 0.05 0.00 0.00 0.00 0.00 0.04 0.02 0.02 0.01 0.00 0.00 0.00 0.00 0.00 0.00 0.00 0.00 0.00 0.00 0.02 0.08 0.07 0.03 0.02 0.01 0.00 0.02
0.00 0.00 0.00 0.00 0.00 0.00 0.00 0.00 0.00 0.00 0.00 0.00 0.00 0.00 0.00 0.01 0.05 0.09 0.05 0.01 0.01 0.00 0.00 0.00 0.02 0.03 0.00 0.01 0.02 0.00 0.00 0.00 0.00 0.00 0.00 0.00 0.00 0.03 0.02 0.05 0.05 0.02 0.02 0.03
0.00 0.00 0.00 0.00 0.00 0.00 0.00 0.00 0.00 0.00 0.00 0.00 0.00 0.03 0.03 0.02 0.06 0.05 0.03 0.02 0.01 0.01 0.00 0.00 0.02 0.03 0.03 0.01 0.04 0.01 0.01 0.00 0.00 0.00 0.00 0.00 0.01 0.02 0.03 0.04 0.02 0.07 0.04 0.02
0.00 0.00 0.00 0.00 0.00 0.00 0.00 0.00 0.00 0.00 0.00 0.00 0.00 0.00 0.00 0.00 0.03 0.03 0.04 0.03 0.02 0.06 0.03 0.00 0.00 0.01 0.03 0.03 0.07 0.03 0.01 0.01 0.00 0.00 0.00 0.00 0.00 0.00 0.05 0.06 0.02 0.01 0.01 0.01
0.00 0.00 0.00 0.00 0.00 0.00 0.00 0.00 0.00 0.00 0.00 0.00 0.00 0.00 0.00 0.00 0.00 0.00 0.06 0.07 0.01 0.00 0.04 0.02 0.00 0.01 0.09 0.06 0.07 0.14 0.11 0.10 0.01 0.02 0.00 0.01 0.00 0.00 0.03 0.03 0.03 0.06 0.01 0.01
0.00 0.00 0.00 0.00 0.00 0.00 0.00 0.00 0.00 0.00 0.00 0.00 0.00 0.00 0.00 0.00 0.00 0.01 0.03 0.13 0.08 0.02 0.04 0.06 0.01 0.04 0.06 0.05 0.02 0.15 0.43 0.45 0.26 0.20 0.08 0.06 0.04 0.01 0.00 0.01 0.01 0.01 0.04 0.02
0.00 0.00 0.00 0.00 0.00 0.00 0.00 0.00 0.00 0.00 0.00 0.00 0.00 0.00 0.00 0.00 0.01 0.01 0.03 0.10 0.09 0.03 0.01 0.07 0.04 0.08 0.03 0.10 0.07 0.05 0.25 0.49 0.51 0.50 0.32 0.24 0.17 0.05 0.02 0.02 0.00 0.00 0.02 0.01
0.00 0.00 0.00 0.00 0.00 0.00 0.00 0.00 0.00 0.00 0.00 0.00 0.00 0.00 0.00 0.00 0.00 0.00 0.07 0.10 0.11 0.11 0.09 0.12 0.19 0.18 0.12 0.15 0.13 0.35 0.54 0.42 0.62 0.65 0.54 0.28 0.18 0.13 0.09 0.12 0.08 0.05 0.09 0.10
0.00 0.00 0.00 0.00 0.00 0.00 0.00 0.00 0.00 0.00 0.00 0.00 0.00 0.00 0.00 0.01 0.00 0.00 0.01 0.07 0.15 0.14 0.19 0.33 0.29 0.30 0.31 0.19 0.20 0.29 1.16 0.67 0.69 1.24 0.67 0.44 0.37 0.33 0.27 0.15 0.10 0.11 0.24 0.16
0.00 0.00 0.00 0.00 0.00 0.00 0.00 0.00 0.00 0.00 0.00 0.00 0.00 0.00 0.00 0.00 0.00 0.00 0.06 0.09 0.03 0.07 0.16 0.16 0.19 0.26 0.37 0.37 0.26 0.27 0.33 0.39 0.30 0.55 0.42 0.44 0.49 0.46 0.51 0.45 0.35 0.36 0.40 0.35
0.00 0.00 0.00 0.00 0.00 0.00 0.00 0.00 0.00 0.00 0.00 0.01 0.00 0.00 0.00 0.00 0.00 0.00 0.05 0.05 0.08 0.03 0.06 0.16 0.21 0.21 0.34 0.42 0.32 0.28 0.23 0.23 0.25 0.19 0.10 0.14 0.30 0.17 0.14 0.07 0.32 0.41 0.46 0.45
0.00 0.00 0.00 0.00 0.00 0.00 0.00 0.00 0.00 0.00 0.00 0.00 0.00 0.00 0.00 0.00 0.00 0.00 0.02 0.02 0.08 0.16 0.28 0.29 0.16 0.17 0.18 0.21 0.18 0.27 0.28 0.26 0.22 0.16 0.09 0.05 0.08 0.16 0.09 0.04 0.11 0.32 0.44 0.41
0.00 0.00 0.00 0.00 0.00 0.00 0.00 0.00 0.01 0.00 0.00 0.00 0.00 0.00 0.01 0.01 0.02 0.02 0.03 0.03 0.02 0.01 0.14 0.30 0.23 0.13 0.19 0.25 0.38 0.44 0.62 0.72 0.67 0.49 0.35 0.20 0.14 0.10 0.11 0.07 0.05 0.13 0.24 0.24
0.00 0.00 0.00 0.00 0.00 0.03 0.02 0.01 0.01 0.00 0.00 0.00 0.00 0.02 0.07 0.09 0.05 0.04 0.10 0.12 0.10 0.03 0.13 0.23 0.28 0.26 0.17 0.12 0.21 0.22 0.36 0.42 0.51 0.65 0.53 0.39 0.37 0.30 0.13 0.16 0.18 0.16 0.15 0.12
0.00 0.00 0.00 0.00 0.00 0.01 0.01 0.01 0.01 0.01 0.01 0.00 0.00 0.00 0.05 0.10 0.20 0.54 0.62 0.47 0.26 0.26 0.24 0.19 0.18 0.15 0.09 0.16 0.24 0.12 0.07 0.10 0.22 0.26 0.30 0.28 0.38 0.49 0.36 0.31 0.21 0.18 0.19 0.13
0.00 0.00 0.00 0.00 0.01 0.06 0.03 0.06 0.01 0.00 0.00 0.00 0.00 0.00 0.01 0.03 0.24 0.79 0.60 0.45 0.39 0.36 0.29 0.19 0.07 0.03 0.03 0.06 0.13 0.07 0.06 0.04 0.07 0.12 0.15 0.22 0.26 0.31 0.32 0.35 0.46 0.35 0.28 0.36
0.00 0.00 0.00 0.00 0.04 0.16 0.03 0.01 0.00 0.00 0.00 0.00 0.00 0.00 0.00 0.08 0.26 0.29 0.23 0.45 0.39 0.23 0.29 0.14 0.09 0.10 0.16 0.11 0.08 0.14 0.11 0.05 0.03 0.05 0.09 0.12 0.16 0.10 0.13 0.20 0.19 0.24 0.27 0.19
0.00 0.00 0.00 0.00 0.01 0.01 0.01 0.00 0.00 0.00 0.00 0.00 0.00 0.00 0.00 0.11 0.31 0.22 0.20 0.26 0.17 0.08 0.08 0.07 0.10 0.08 0.13 0.17 0.15 0.20 0.08 0.02 0.03 0.04 0.03 0.03 0.01 0.01 0.00 0.01 0.02 0.03 0.03 0.01
0.00 0.00 0.00 0.00 0.00 0.00 0.00 0.00 0.00 0.00 0.00 0.00 0.00 0.00 0.00 0.03 0.06 0.08 0.10 0.03 0.04 0.02 0.03 0.08 0.08 0.05 0.05 0.08 0.08 0.05 0.01 0.00 0.00 0.00 0.00 0.00 0.00 0.00 0.00 0.00 0.00 0.00 0.00 0.00
0.00 0.00 0.00 0.00 0.00 0.00 0.00 0.00 0.00 0.00 0.00 0.00 0.00 0.00 0.01 0.00 0.01 0.00 0.00 0.00 0.00 0.00 0.00 0.01 0.00 0.00 0.00 0.00 0.00 0.00 0.00 0.00 0.00 0.00 0.00 0.00 0.00 0.00 0.00 0.00 0.00 0.00 0.00 0.00

GFSCGP_prec_precacc12_168.txt.gz
Total_Precipitation_Accumulation
0.00 0.00 0.00 0.00 0.00 0.00 0.00 0.00 0.00 0.00 0.00 0.01 0.00 0.00 0.01 0.04 0.04 0.03 0.01 0.00 0.00 0.00 0.00 0.02 0.02 0.01 0.00 0.00 0.00 0.00 0.00 0.00 0.00 0.00 0.00 0.00 0.00 0.00 0.00 0.00 0.00 0.00 0.00 0.00
0.00 0.00 0.00 0.00 0.00 0.00 0.00 0.00 0.00 0.00 0.00 0.02 0.04 0.01 0.00 0.00 0.01 0.02 0.00 0.00 0.00 0.00 0.00 0.01 0.03 0.02 0.00 0.00 0.00 0.00 0.00 0.00 0.00 0.00 0.00 0.00 0.00 0.00 0.00 0.00 0.00 0.00 0.00 0.02
0.00 0.00 0.00 0.00 0.00 0.00 0.00 0.00 0.00 0.00 0.04 0.09 0.05 0.01 0.01 0.00 0.00 0.01 0.01 0.02 0.01 0.00 0.00 0.00 0.00 0.01 0.01 0.00 0.00 0.00 0.00 0.00 0.00 0.00 0.00 0.00 0.01 0.06 0.03 0.00 0.01 0.00 0.01 0.05
0.00 0.00 0.00 0.00 0.00 0.00 0.00 0.00 0.00 0.00 0.00 0.02 0.04 0.01 0.00 0.00 0.00 0.00 0.00 0.02 0.05 0.00 0.00 0.00 0.00 0.00 0.00 0.00 0.00 0.00 0.00 0.00 0.00 0.00 0.00 0.03 0.10 0.07 0.05 0.01 0.00 0.00 0.00 0.04
0.00 0.00 0.00 0.00 0.00 0.00 0.00 0.00 0.00 0.00 0.01 0.02 0.05 0.03 0.00 0.00 0.00 0.00 0.00 0.01 0.03 0.01 0.02 0.01 0.00 0.00 0.00 0.00 0.00 0.00 0.00 0.00 0.00 0.00 0.00 0.03 0.03 0.03 0.02 0.00 0.05 0.08 0.04 0.01
0.00 0.00 0.00 0.00 0.00 0.00 0.00 0.00 0.00 0.02 0.06 0.01 0.00 0.01 0.00 0.00 0.00 0.00 0.00 0.00 0.00 0.03 0.05 0.04 0.01 0.00 0.00 0.00 0.00 0.00 0.00 0.01 0.00 0.00 0.00 0.02 0.08 0.07 0.06 0.06 0.10 0.08 0.02 0.00
0.00 0.00 0.00 0.00 0.00 0.00 0.00 0.00 0.00 0.01 0.00 0.00 0.00 0.00 0.00 0.00 0.00 0.00 0.00 0.00 0.00 0.00 0.04 0.02 0.01 0.01 0.00 0.00 0.00 0.00 0.00 0.00 0.00 0.00 0.00 0.00 0.03 0.15 0.16 0.06 0.01 0.01 0.01 0.03
0.00 0.00 0.00 0.00 0.00 0.00 0.00 0.00 0.00 0.00 0.00 0.00 0.00 0.00 0.00 0.00 0.00 0.00 0.00 0.00 0.01 0.00 0.00 0.00 0.02 0.03 0.00 0.00 0.00 0.00 0.00 0.00 0.00 0.00 0.00 0.00 0.01 0.04 0.04 0.05 0.05 0.01 0.00 0.00
0.00 0.00 0.00 0.00 0.00 0.00 0.00 0.00 0.00 0.00 0.00 0.00 0.00 0.00 0.00 0.00 0.00 0.00 0.00 0.00 0.01 0.01 0.00 0.00 0.02 0.03 0.02 0.01 0.01 0.00 0.00 0.00 0.00 0.00 0.00 0.00 0.00 0.00 0.00 0.02 0.02 0.03 0.03 0.01
0.00 0.00 0.00 0.00 0.00 0.00 0.00 0.00 0.00 0.00 0.00 0.00 0.00 0.00 0.00 0.00 0.00 0.00 0.00 0.00 0.01 0.05 0.02 0.00 0.00 0.01 0.01 0.00 0.00 0.00 0.00 0.01 0.00 0.00 0.00 0.00 0.00 0.00 0.02 0.03 0.04 0.06 0.10 0.07
0.00 0.00 0.00 0.00 0.00 0.00 0.00 0.00 0.00 0.00 0.00 0.00 0.00 0.00 0.00 0.00 0.00 0.00 0.00 0.00 0.00 0.00 0.03 0.02 0.00 0.00 0.03 0.04 0.01 0.03 0.01 0.06 0.01 0.02 0.00 0.00 0.00 0.00 0.01 0.00 0.07 0.12 0.07 0.08
0.00 0.00 0.00 0.00 0.00 0.00 0.00 0.00 0.00 0.00 0.00 0.00 0.00 0.00 0.00 0.00 0.00 0.00 0.00 0.00 0.00 0.00 0.01 0.01 0.00 0.00 0.03 0.02 0.01 0.02 0.03 0.12 0.14 0.15 0.07 0.05 0.04 0.00 0.00 0.00 0.01 0.06 0.11 0.05
0.00 0.00 0.00 0.00 0.00 0.00 0.00 0.00 0.00 0.00 0.00 0.00 0.00 0.00 0.00 0.00 0.00 0.00 0.00 0.00 0.01 0.01 0.01 0.04 0.02 0.02 0.01 0.08 0.04 0.01 0.05 0.07 0.12 0.15 0.10 0.11 0.10 0.03 0.00 0.00 0.00 0.00 0.03 0.03
0.00 0.00 0.00 0.00 0.00 0.00 0.00 0.00 0.00 0.00 0.00 0.00 0.00 0.00 0.00 0.00 0.00 0.00 0.00 0.00 0.00 0.00 0.00 0.05 0.15 0.12 0.07 0.12 0.11 0.05 0.14 0.19 0.22 0.32 0.24 0.12 0.07 0.05 0.01 0.04 0.03 0.01 0.04 0.03
0.00 0.00 0.00 0.00 0.00 0.00 0.00 0.00 0.00 0.00 0.00 0.00 0.00 0.00 0.00 0.00 0.00 0.00 0.00 0.00 0.00 0.00 0.02 0.09 0.20 0.23 0.26 0.18 0.17 0.16 0.20 0.19 0.22 0.27 0.33 0.31 0.26 0.25 0.17 0.10 0.07 0.02 0.03 0.06
0.00 0.00 0.00 0.00 0.00 0.00 0.00 0.00 0.00 0.00 0.00 0.00 0.00 0.00 0.00 0.00 0.00 0.00 0.00 0.00 0.00 0.04 0.09 0.04 0.08 0.19 0.35 0.35 0.24 0.24 0.20 0.12 0.11 0.16 0.24 0.25 0.35 0.36 0.34 0.32 0.30 0.24 0.23 0.19
0.00 0.00 0.00 0.00 0.00 0.00 0.00 0.00 0.00 0.00 0.00 0.00 0.00 0.00 0.00 0.00 0.00 0.00 0.02 0.01 0.00 0.00 0.04 0.14 0.16 0.15 0.17 0.19 0.23 0.22 0.25 0.19 0.11 0.08 0.05 0.10 0.25 0.16 0.13 0.07 0.26 0.35 0.39 0.32
0.00 0.00 0.00 0.00 0.00 0.00 0.00 0.00 0.00 0.00 0.00 0.00 0.00 0.00 0.00 0.00 0.00 0.00 0.01 0.02 0.03 0.05 0.12 0.18 0.11 0.11 0.12 0.10 0.08 0.12 0.17 0.19 0.22 0.16 0.05 0.02 0.06 0.14 0.09 0.03 0.04 0.16 0.30 0.32
0.00 0.00 0.00 0.00 0.00 0.00 0.00 0.00 0.00 0.00 0.00 0.00 0.00 0.00 0.00 0.00 0.00 0.01 0.03 0.03 0.01 0.00 0.09 0.19 0.08 0.04 0.04 0.13 0.23 0.22 0.35 0.45 0.53 0.46 0.28 0.16 0.09 0.08 0.11 0.06 0.03 0.04 0.04 0.09
0.00 0.00 0.00 0.00 0.00 0.00 0.00 0.00 0.01 0.00 0.00 0.00 0.00 0.00 0.00 0.00 0.00 0.03 0.09 0.10 0.09 0.02 0.13 0.20 0.14 0.14 0.10 0.06 0.10 0.17 0.35 0.36 0.50 0.50 0.31 0.27 0.33 0.27 0.14 0.12 0.13 0.10 0.07 0.05
0.00 0.00 0.00 0.00 0.00 0.00 0.00 0.00 0.00 0.01 0.00 0.00 0.00 0.00 0.04 0.07 0.09 0.29 0.37 0.35 0.21 0.24 0.20 0.11 0.07 0.07 0.07 0.14 0.28 0.10 0.07 0.22 0.28 0.27 0.33 0.32 0.43 0.50 0.41 0.36 0.26 0.20 0.19 0.15
0.00 0.00 0.00 0.00 0.00 0.00 0.00 0.00 0.00 0.00 0.00 0.00 0.00 0.00 0.01 0.02 0.12 0.36 0.44 0.45 0.41 0.35 0.30 0.19 0.07 0.03 0.03 0.06 0.13 0.08 0.06 0.09 0.17 0.29 0.30 0.45 0.48 0.54 0.56 0.53 0.67 0.62 0.43 0.48
0.00 0.00 0.00 0.00 0.00 0.00 0.00 0.00 0.00 0.00 0.00 0.00 0.00 0.00 0.00 0.09 0.26 0.28 0.23 0.44 0.40 0.27 0.32 0.20 0.13 0.14 0.17 0.12 0.09 0.14 0.13 0.08 0.05 0.10 0.22 0.28 0.43 0.45 0.49 0.47 0.38 0.46 0.51 0.38
0.00 0.00 0.00 0.00 0.00 0.00 0.00 0.00 0.00 0.00 0.00 0.00 0.00 0.00 0.00 0.11 0.31 0.21 0.21 0.27 0.21 0.21 0.14 0.19 0.26 0.21 0.19 0.26 0.24 0.22 0.10 0.05 0.05 0.05 0.09 0.11 0.14 0.17 0.13 0.08 0.08 0.09 0.08 0.04
0.00 0.00 0.00 0.00 0.00 0.00 0.00 0.00 0.00 0.00 0.00 0.00 0.00 0.00 0.00 0.03 0.06 0.08 0.12 0.06 0.05 0.07 0.12 0.18 0.22 0.23 0.20 0.24 0.16 0.05 0.02 0.01 0.01 0.00 0.00 0.01 0.01 0.00 0.01 0.01 0.01 0.00 0.00 0.00
0.00 0.00 0.00 0.00 0.00 0.00 0.00 0.00 0.00 0.00 0.00 0.00 0.00 0.00 0.00 0.00 0.01 0.00 0.00 0.01 0.00 0.01 0.02 0.03 0.02 0.03 0.05 0.05 0.01 0.00 0.00 0.00 0.00 0.00 0.00 0.00 0.00 0.00 0.00 0.00 0.00 0.00 0.00 0.00

GFSCGP_prec_precacc12_171.txt.gz
Total_Precipitation_Accumulation
0.00 0.00 0.00 0.00 0.01 0.17 0.01 0.00 0.00 0.00 0.00 0.00 0.01 0.02 0.01 0.04 0.03 0.03 0.01 0.00 0.00 0.00 0.00 0.01 0.01 0.00 0.00 0.00 0.00 0.00 0.00 0.00 0.00 0.00 0.00 0.00 0.00 0.00 0.00 0.00 0.00 0.00 0.00 0.00
0.00 0.00 0.00 0.00 0.00 0.00 0.00 0.00 0.00 0.00 0.00 0.01 0.01 0.00 0.00 0.00 0.01 0.01 0.00 0.00 0.01 0.01 0.00 0.00 0.03 0.01 0.00 0.00 0.00 0.00 0.00 0.00 0.00 0.00 0.00 0.00 0.00 0.00 0.00 0.00 0.00 0.00 0.00 0.01
0.00 0.00 0.00 0.00 0.00 0.00 0.00 0.00 0.00 0.00 0.04 0.09 0.04 0.05 0.01 0.00 0.00 0.00 0.00 0.00 0.00 0.00 0.00 0.00 0.00 0.01 0.01 0.00 0.00 0.00 0.00 0.00 0.00 0.00 0.00 0.00 0.00 0.05 0.03 0.00 0.00 0.00 0.01 0.04
0.00 0.00 0.00 0.00 0.00 0.00 0.00 0.00 0.00 0.00 0.01 0.12 0.04 0.29 0.11 0.00 0.00 0.00 0.00 0.00 0.00 0.00 0.00 0.00 0.00 0.00 0.00 0.00 0.00 0.00 0.00 0.00 0.00 0.00 0.00 0.03 0.12 0.07 0.05 0.01 0.00 0.00 0.00 0.04
0.00 0.00 0.00 0.00 0.00 0.00 0.00 0.00 0.00 0.00 0.00 0.02 0.03 0.02 0.02 0.00 0.00 0.00 0.00 0.00 0.00 0.01 0.01 0.00 0.00 0.00 0.00 0.00 0.00 0.00 0.00 0.00 0.00 0.00 0.00 0.02 0.01 0.01 0.01 0.00 0.05 0.09 0.04 0.01
0.00 0.00 0.00 0.00 0.00 0.00 0.00 0.00 0.00 0.00 0.00 0.00 0.00 0.01 0.00 0.00 0.00 0.00 0.00 0.00 0.00 0.00 0.00 0.00 0.00 0.00 0.00 0.00 0.00 0.00 0.00 0.01 0.00 0.00 0.00 0.00 0.07 0.09 0.10 0.08 0.11 0.07 0.02 0.00
0.00 0.00 0.00 0.00 0.00 0.00 0.00 0.00 0.00 0.00 0.00 0.00 0.00 0.00 0.00 0.00 0.00 0.00 0.00 0.00 0.00 0.00 0.00 0.00 0.00 0.00 0.00 0.00 0.00 0.00 0.00 0.00 0.00 0.00 0.00 0.00 0.03 0.16 0.20 0.07 0.01 0.01 0.02 0.03
0.00 0.00 0.00 0.00 0.00 0.00 0.00 0.00 0.00 0.00 0.00 0.00 0.00 0.00 0.00 0.00 0.00 0.00 0.00 0.00 0.01 0.00 0.00 0.00 0.01 0.00 0.00 0.00 0.00 0.00 0.00 0.00 0.00 0.00 0.00 0.00 0.02 0.04 0.03 0.04 0.06 0.12 0.02 0.01
0.00 0.00 0.00 0.00 0.00 0.00 0.00 0.00 0.00 0.00 0.00 0.00 0.00 0.00 0.00 0.00 0.00 0.00 0.00 0.00 0.00 0.00 0.00 0.00 0.00 0.00 0.00 0.00 0.00 0.00 0.00 0.00 0.00 0.00 0.00 0.00 0.00 0.00 0.00 0.03 0.03 0.03 0.01 0.07
0.00 0.00 0.00 0.00 0.00 0.00 0.00 0.00 0.00 0.00 0.00 0.00 0.00 0.00 0.00 0.00 0.00 0.00 0.00 0.00 0.00 0.01 0.00 0.00 0.00 0.00 0.00 0.00 0.00 0.00 0.00 0.00 0.00 0.00 0.00 0.00 0.02 0.00 0.02 0.03 0.05 0.06 0.09 0.07
0.00 0.00 0.00 0.00 0.00 0.00 0.00 0.00 0.00 0.00 0.00 0.00 0.00 0.00 0.00 0.00 0.00 0.00 0.00 0.00 0.00 0.00 0.00 0.00 0.00 0.00 0.00 0.01 0.00 0.01 0.00 0.01 0.01 0.00 0.00 0.00 0.00 0.00 0.01 0.00 0.06 0.09 0.07 0.08
0.00 0.00 0.00 0.00 0.00 0.00 0.00 0.00 0.00 0.00 0.00 0.00 0.00 0.00 0.00 0.00 0.00 0.00 0.00 0.00 0.00 0.00 0.00 0.00 0.00 0.00 0.00 0.00 0.00 0.01 0.00 0.02 0.02 0.00 0.00 0.00 0.00 0.00 0.00 0.00 0.00 0.06 0.11 0.04
0.00 0.00 0.00 0.00 0.00 0.00 0.00 0.00 0.00 0.00 0.00 0.00 0.00 0.00 0.00 0.00 0.00 0.00 0.00 0.00 0.00 0.01 0.00 0.00 0.00 0.00 0.00 0.00 0.00 0.00 0.03 0.02 0.02 0.00 0.02 0.02 0.00 0.00 0.00 0.00 0.00 0.00 0.02 0.03
0.00 0.00 0.00 0.00 0.00 0.00 0.00 0.00 0.00 0.00 0.00 0.00 0.00 0.00 0.00 0.00 0.00 0.00 0.00 0.00 0.00 0.00 0.00 0.00 0.01 0.01 0.01 0.02 0.02 0.02 0.10 0.12 0.10 0.11 0.12 0.08 0.04 0.01 0.00 0.04 0.03 0.00 0.00 0.00
0.00 0.00 0.00 0.00 0.00 0.00 0.00 0.00 0.00 0.00 0.00 0.00 0.00 0.00 0.00 0.00 0.00 0.00 0.00 0.00 0.00 0.00 0.00 0.00 0.04 0.07 0.09 0.08 0.08 0.10 0.14 0.12 0.16 0.21 0.18 0.14 0.12 0.11 0.05 0.04 0.07 0.03 0.04 0.06
0.00 0.00 0.00 0.00 0.00 0.00 0.00 0.00 0.00 0.00 0.00 0.00 0.00 0.00 0.00 0.00 0.00 0.00 0.00 0.00 0.00 0.03 0.07 0.01 0.01 0.08 0.16 0.25 0.15 0.16 0.16 0.08 0.08 0.12 0.22 0.23 0.11 0.11 0.08 0.07 0.10 0.14 0.24 0.14
0.00 0.00 0.00 0.00 0.00 0.00 0.00 0.00 0.00 0.00 0.00 0.00 0.00 0.00 0.00 0.00 0.00 0.00 0.00 0.00 0.00 0.00 0.04 0.09 0.05 0.08 0.09 0.15 0.21 0.21 0.30 0.34 0.15 0.10 0.09 0.11 0.16 0.18 0.13 0.10 0.10 0.19 0.21 0.12
0.00 0.00 0.00 0.00 0.00 0.00 0.00 0.00 0.00 0.00 0.00 0.00 0.00 0.00 0.00 0.00 0.00 0.00 0.00 0.00 0.00 0.01 0.07 0.17 0.12 0.08 0.10 0.07 0.05 0.11 0.22 0.35 0.42 0.26 0.16 0.12 0.11 0.12 0.12 0.10 0.07 0.11 0.17 0.21
0.00 0.00 0.00 0.00 0.00 0.00 0.00 0.00 0.00 0.00 0.00 0.00 0.00 0.00 0.00 0.00 0.00 0.00 0.02 0.02 0.02 0.03 0.06 0.10 0.07 0.03 0.04 0.15 0.28 0.22 0.21 0.34 0.41 0.44 0.31 0.13 0.13 0.07 0.05 0.05 0.06 0.04 0.03 0.05
0.00 0.00 0.00 0.00 0.00 0.00 0.00 0.00 0.00 0.00 0.00 0.00 0.00 0.00 0.00 0.00 0.00 0.08 0.08 0.08 0.05 0.02 0.09 0.09 0.03 0.01 0.02 0.04 0.14 0.27 0.41 0.36 0.45 0.62 0.44 0.41 0.22 0.19 0.12 0.08 0.06 0.06 0.05 0.04
0.00 0.00 0.00 0.00 0.00 0.00 0.00 0.00 0.00 0.00 0.00 0.00 0.00 0.00 0.00 0.04 0.08 0.15 0.30 0.27 0.17 0.17 0.12 0.01 0.00 0.03 0.04 0.12 0.23 0.07 0.07 0.23 0.29 0.32 0.56 0.50 0.57 0.51 0.37 0.29 0.21 0.17 0.18 0.13
0.00 0.00 0.00 0.00 0.00 0.00 0.00 0.00 0.00 0.00 0.00 0.00 0.00 0.00 0.01 0.03 0.07 0.19 0.38 0.40 0.39 0.33 0.22 0.11 0.03 0.03 0.03 0.06 0.12 0.07 0.04 0.10 0.22 0.32 0.31 0.61 0.69 0.62 0.60 0.53 0.67 0.68 0.52 0.56
0.00 0.00 0.00 0.00 0.00 0.00 0.00 0.00 0.00 0.00 0.00 0.00 0.00 0.00 0.00 0.07 0.25 0.27 0.21 0.44 0.44 0.31 0.35 0.20 0.13 0.15 0.19 0.12 0.09 0.14 0.14 0.10 0.06 0.13 0.28 0.39 0.75 0.78 0.95 0.98 0.68 0.69 0.84 0.77
0.00 0.00 0.00 0.00 0.00 0.00 0.00 0.00 0.00 0.00 0.00 0.00 0.00 0.00 0.00 0.11 0.31 0.24 0.31 0.46 0.34 0.28 0.17 0.19 0.29 0.22 0.20 0.29 0.26 0.23 0.19 0.10 0.07 0.06 0.12 0.18 0.28 0.38 0.28 0.21 0.21 0.22 0.18 0.13
0.00 0.00 0.00 0.00 0.00 0.00 0.00 0.00 0.00 0.00 0.00 0.00 0.00 0.00 0.00 0.03 0.08 0.09 0.14 0.14 0.11 0.09 0.13 0.20 0.31 0.29 0.25 0.29 0.19 0.09 0.07 0.06 0.02 0.01 0.01 0.05 0.07 0.13 0.22 0.19 0.10 0.06 0.05 0.03
0.01 0.00 0.00 0.00 0.00 0.00 0.00 0.00 0.00 0.00 0.00 0.00 0.00 0.00 0.00 0.00 0.00 0.00 0.01 0.10 0.15 0.02 0.09 0.08 0.08 0.09 0.10 0.07 0.02 0.01 0.03 0.06 0.01 0.00 0.00 0.00 0.01 0.01 0.03 0.05 0.05 0.03 0.01 0.00